TimeCDT,TemperatureF,Dew PointF,Humidity,Sea Level PressureIn,VisibilityMPH,Wind Direction,Wind SpeedMPH,Gust SpeedMPH,PrecipitationIn,Events,Conditions,WindDirDegrees,DateUTC
12:13 AM,15.8,8.6,73,30.28,10.0,Calm,Calm,-,N/A,,Clear,0,2013-03-28 05:13:00
12:33 AM,15.8,8.6,73,30.28,10.0,Calm,Calm,-,N/A,,Clear,0,2013-03-28 05:33:00
12:53 AM,14.0,8.6,79,30.28,10.0,Calm,Calm,-,N/A,,Clear,0,2013-03-28 05:53:00
1:13 AM,12.2,6.8,79,30.28,10.0,Calm,Calm,-,N/A,,Clear,0,2013-03-28 06:13:00
1:33 AM,12.2,8.6,85,30.28,10.0,Calm,Calm,-,N/A,,Clear,0,2013-03-28 06:33:00
1:53 AM,14.0,8.6,79,30.28,10.0,Calm,Calm,-,N/A,,Clear,0,2013-03-28 06:53:00
2:13 AM,12.2,6.8,79,30.28,10.0,Calm,Calm,-,N/A,,Clear,0,2013-03-28 07:13:00
2:33 AM,14.0,8.6,79,30.28,10.0,Calm,Calm,-,N/A,,Clear,0,2013-03-28 07:33:00
2:53 AM,14.0,6.8,73,30.28,10.0,Calm,Calm,-,N/A,,Clear,0,2013-03-28 07:53:00
3:13 AM,12.2,6.8,79,30.28,10.0,Calm,Calm,-,N/A,,Clear,0,2013-03-28 08:13:00
3:33 AM,10.4,6.8,85,30.28,10.0,Calm,Calm,-,N/A,,Clear,0,2013-03-28 08:33:00
3:53 AM,10.4,6.8,85,30.28,10.0,Calm,Calm,-,N/A,,Clear,0,2013-03-28 08:53:00
4:13 AM,10.4,5.0,79,30.28,10.0,Calm,Calm,-,N/A,,Clear,0,2013-03-28 09:13:00
4:33 AM,8.6,3.2,79,30.28,10.0,Calm,Calm,-,N/A,,Clear,0,2013-03-28 09:33:00
4:53 AM,8.6,3.2,79,30.28,10.0,Calm,Calm,-,N/A,,Clear,0,2013-03-28 09:53:00
5:13 AM,8.6,3.2,79,30.28,10.0,Calm,Calm,-,N/A,,Clear,0,2013-03-28 10:13:00
5:33 AM,8.6,5.0,85,30.28,10.0,Calm,Calm,-,N/A,,Clear,0,2013-03-28 10:33:00
5:53 AM,6.8,1.4,79,30.28,10.0,Calm,Calm,-,N/A,,Clear,0,2013-03-28 10:53:00
6:13 AM,6.8,1.4,79,30.29,10.0,Calm,Calm,-,N/A,,Clear,0,2013-03-28 11:13:00
6:33 AM,8.6,3.2,79,30.29,10.0,Calm,Calm,-,N/A,,Clear,0,2013-03-28 11:33:00
6:53 AM,8.6,3.2,79,30.29,10.0,Calm,Calm,-,N/A,,Clear,0,2013-03-28 11:53:00
7:14 AM,8.6,5.0,85,30.29,10.0,Calm,Calm,-,N/A,,Clear,0,2013-03-28 12:14:00
7:33 AM,12.2,6.8,79,30.30,10.0,Calm,Calm,-,N/A,,Clear,0,2013-03-28 12:33:00
7:53 AM,15.8,10.4,79,30.30,10.0,Calm,Calm,-,N/A,,Clear,0,2013-03-28 12:53:00
8:13 AM,21.2,14.0,74,30.30,10.0,Calm,Calm,-,N/A,,Clear,0,2013-03-28 13:13:00
8:33 AM,26.6,17.6,69,30.29,10.0,Calm,Calm,-,N/A,,Clear,0,2013-03-28 13:33:00
8:53 AM,32.0,15.8,51,30.29,10.0,Calm,Calm,-,N/A,,Clear,0,2013-03-28 13:53:00
9:13 AM,37.4,14.0,38,30.29,10.0,Calm,Calm,-,N/A,,Clear,0,2013-03-28 14:13:00
9:33 AM,42.8,12.2,29,30.29,10.0,Calm,Calm,-,N/A,,Clear,0,2013-03-28 14:33:00
9:53 AM,44.6,10.4,25,30.29,10.0,Calm,Calm,-,N/A,,Clear,0,2013-03-28 14:53:00
10:13 AM,48.2,6.8,19,30.29,10.0,Calm,Calm,-,N/A,,Clear,0,2013-03-28 15:13:00
10:53 AM,48.2,5.0,17,30.29,10.0,Calm,Calm,-,N/A,,Clear,0,2013-03-28 15:53:00
11:13 AM,48.2,6.8,19,30.29,10.0,Calm,Calm,-,N/A,,Clear,0,2013-03-28 16:13:00
11:33 AM,46.4,8.6,22,30.29,10.0,Calm,Calm,-,N/A,,Clear,0,2013-03-28 16:33:00
11:53 AM,44.6,6.8,21,30.29,10.0,SSE,9.2,-,N/A,,Unknown,150,2013-03-28 16:53:00
12:13 PM,42.8,8.6,25,30.29,10.0,SSE,6.9,-,N/A,,Clear,150,2013-03-28 17:13:00
12:33 PM,42.8,8.6,25,30.29,10.0,SE,5.8,-,N/A,,Clear,140,2013-03-28 17:33:00
12:53 PM,42.8,6.8,23,30.28,10.0,South,8.1,-,N/A,,Clear,170,2013-03-28 17:53:00
1:13 PM,42.8,6.8,23,30.28,10.0,SE,9.2,-,N/A,,Clear,140,2013-03-28 18:13:00
1:33 PM,42.8,6.8,23,30.28,10.0,SSE,6.9,-,N/A,,Clear,150,2013-03-28 18:33:00
1:53 PM,42.8,8.6,25,30.27,10.0,SSW,8.1,-,N/A,,Clear,200,2013-03-28 18:53:00
2:13 PM,42.8,6.8,23,30.27,10.0,South,10.4,-,N/A,,Clear,170,2013-03-28 19:13:00
2:33 PM,42.8,8.6,25,30.26,10.0,Calm,Calm,-,N/A,,Clear,0,2013-03-28 19:33:00
2:53 PM,42.8,8.6,25,30.26,10.0,SSW,9.2,-,N/A,,Clear,200,2013-03-28 19:53:00
3:13 PM,42.8,6.8,23,30.26,10.0,SSE,8.1,-,N/A,,Clear,160,2013-03-28 20:13:00
3:33 PM,42.8,6.8,23,30.25,10.0,South,10.4,-,N/A,,Clear,190,2013-03-28 20:33:00
3:53 PM,42.8,6.8,23,30.25,10.0,South,9.2,-,N/A,,Clear,180,2013-03-28 20:53:00
4:13 PM,42.8,8.6,25,30.24,10.0,South,6.9,-,N/A,,Clear,190,2013-03-28 21:13:00
4:33 PM,42.8,8.6,25,30.24,10.0,SSW,9.2,-,N/A,,Clear,200,2013-03-28 21:33:00
4:53 PM,41.0,8.6,26,30.24,10.0,SSW,9.2,-,N/A,,Clear,200,2013-03-28 21:53:00
5:13 PM,41.0,8.6,26,30.24,10.0,South,9.2,-,N/A,,Clear,190,2013-03-28 22:13:00
5:33 PM,41.0,8.6,26,30.23,10.0,South,6.9,-,N/A,,Clear,180,2013-03-28 22:33:00
5:53 PM,41.0,8.6,26,30.23,10.0,SSW,6.9,-,N/A,,Clear,210,2013-03-28 22:53:00
6:13 PM,42.8,8.6,25,30.23,10.0,Calm,Calm,-,N/A,,Clear,0,2013-03-28 23:13:00
6:33 PM,39.2,8.6,28,30.23,10.0,SSW,5.8,-,N/A,,Clear,210,2013-03-28 23:33:00
6:53 PM,37.4,10.4,33,30.23,10.0,Calm,Calm,-,N/A,,Clear,0,2013-03-28 23:53:00
7:13 PM,33.8,10.4,38,30.23,10.0,Calm,Calm,-,N/A,,Clear,0,2013-03-29 00:13:00
7:33 PM,32.0,8.6,38,30.23,10.0,Calm,Calm,-,N/A,,Clear,0,2013-03-29 00:33:00
7:53 PM,30.2,10.4,44,30.24,10.0,Calm,Calm,-,N/A,,Clear,0,2013-03-29 00:53:00
8:13 PM,28.4,10.4,47,30.24,10.0,Calm,Calm,-,N/A,,Clear,0,2013-03-29 01:13:00
8:34 PM,26.6,12.2,55,30.24,10.0,Calm,Calm,-,N/A,,Clear,0,2013-03-29 01:34:00
8:53 PM,24.8,12.2,59,30.25,10.0,Calm,Calm,-,N/A,,Clear,0,2013-03-29 01:53:00
9:13 PM,23.0,12.2,63,30.25,10.0,Calm,Calm,-,N/A,,Clear,0,2013-03-29 02:13:00
9:33 PM,23.0,10.4,59,30.25,10.0,Calm,Calm,-,N/A,,Clear,0,2013-03-29 02:33:00
9:53 PM,21.2,10.4,63,30.25,10.0,Calm,Calm,-,N/A,,Clear,0,2013-03-29 02:53:00
10:13 PM,21.2,10.4,63,30.25,10.0,Calm,Calm,-,N/A,,Clear,0,2013-03-29 03:13:00
10:33 PM,21.2,10.4,63,30.25,10.0,Calm,Calm,-,N/A,,Clear,0,2013-03-29 03:33:00
10:53 PM,19.4,10.4,68,30.25,10.0,Calm,Calm,-,N/A,,Clear,0,2013-03-29 03:53:00
11:13 PM,19.4,10.4,68,30.24,10.0,Calm,Calm,-,N/A,,Clear,0,2013-03-29 04:13:00
11:34 PM,17.6,10.4,73,30.24,10.0,Calm,Calm,-,N/A,,Clear,0,2013-03-29 04:34:00
11:53 PM,17.6,10.4,73,30.24,10.0,Calm,Calm,-,N/A,,Clear,0,2013-03-29 04:53:00